Regional Weather Roundup
Issued by NWS

Home | Current Version | Previous Version | Graphics & Text | Print | Product List | Glossary Off
Versions: 1 2 3 4 5 6 7 8 9 10 11 12 13 14 15 16 17 18 19 20 21 22 23 24 25 26 27 28 29 30 31 32 33 34 35 36 37 38 39 40 41 42 43 44 45 46 47 48 49 50

000
ASUS43 KTOP 230508
RWRKS

WEATHER ROUNDUP FOR KANSAS
NATIONAL WEATHER SERVICE GOODLAND KS
1200 AM CDT FRI JUN 23 2017

NOTE:  "FAIR" INDICATES FEW OR NO CLOUDS BELOW 12,000 FEET WITH NO
SIGNIFICANT WEATHER AND/OR OBSTRUCTIONS TO VISIBILITY.

KSZ001>006-013>018-027>032-041>047-230600-
NORTHWEST KANSAS

CITY           SKY/WX    TMP DP  RH WIND       PRES   REMARKS
GOODLAND       CLOUDY    69  57  65 NE16      29.94R
HAYS           LGT RAIN  67  65  93 NE9       29.84F
HILL CITY      CLOUDY    76  61  59 NE18G25   29.86R
RUSSELL        LGT RAIN  70  65  84 W15       29.87R
$$

KSZ061>065-074>080-084>089-230600-
SOUTHWEST KANSAS

CITY           SKY/WX    TMP DP  RH WIND       PRES   REMARKS
DODGE CITY     CLOUDY    74  59  59 N17       29.81R
ELKHART          N/A     66  54  65 SE5         N/A
GARDEN CITY    CLOUDY    70  63  78 NE14      29.85R
GREAT BEND     LGT RAIN  74  60  61 W30G40    29.83F
LIBERAL        CLOUDY    74  59  59 N9        29.84F
PRATT          MOCLDY    79  53  40 NW23G33   29.79S
$$

KSZ066>073-081>083-090>101-230600-
SOUTHEAST KANSAS

CITY           SKY/WX    TMP DP  RH WIND       PRES   REMARKS
CHANUTE        CLEAR     74  71  91 S7        29.71S
COFFEYVILLE    CLEAR     75  73  93 CALM      29.71R
HUTCHINSON     PTCLDY    82  64  54 SW9       29.76R
MEDICINE LODGE   N/A     78  65  63 N7        29.80R
NEWTON         PTCLDY    77  70  79 S10       29.75R
PARSONS        CLEAR     72  70  93 CALM      29.73R
WICHITA INTL   PTCLDY    77  72  84 S7        29.74R
WICHITA JABRA  CLEAR     78  71  79 S9        29.73R
WICHITA MCCONL CLOUDY    78  71  76 S9        29.74R
WINFIELD       CLEAR     76  71  85 SE5       29.74R
$$

KSZ007>012-019>026-033>040-048>060-102>105-230600-
NORTHEAST KANSAS

CITY           SKY/WX    TMP DP  RH WIND       PRES   REMARKS
CONCORDIA      CLOUDY    78  64  61 N14G26    29.76R
EMPORIA        CLEAR     76  73  91 S9        29.70R
LAWRENCE       PTCLDY    76  74  93 E5        29.69R
MANHATTAN      PTCLDY    81  71  71 S7        29.67R
MARYSVILLE     MOCLDY    73  70  88 CALM      29.73R
OLATHE IND     CLEAR     77  73  87 SE7       29.71S
OLATHE EXE     CLEAR     76  74  93 CALM      29.72R
SALINA         CLOUDY    84  67  56 SW9       29.71R
TOPEKA BILLARD CLEAR     79  73  82 CALM      29.69R
TOPEKA FORBES  CLEAR     78  72  81 SE3       29.69R
$$




USA.gov is the U.S. government's official web portal to all federal, state and local government web resources and services.